Location: ????
(33.1659°N, 35.6604°E)
Time: 06:09:14
(UTC+00:00)

Cosmos 1378 - Pass Details

Date: 20 September 2019
Orbit: 493 x 503 km, 82.5° (Epoch: 21 October)

Event Time Altitude Azimuth Distance (km) Brightness Sun altitude
Rises 16:07:11 0° 355° (N) 2,603 6.9 -7.0°
Reaches altitude 10° 16:09:19 10° 357° (N) 1,714 6.0 -7.5°
Maximum altitude 16:13:04 77° 83° (E) 518 3.0 -8.3°
Drops below altitude 10° 16:16:47 10° 170° (S) 1,697 5.6 -9.0°
Sets 16:18:53 0° 172° (S) 2,574 6.6 -9.5°
